• In Spain
  • List of Countries
  • For 7 days
  • Water Temperature
  • Satellite Maps
  • Weather Map
  • Weather Widgets
  • user-avatar
    Login

    Hourly Weather Tomar

    Today, 15 October, Monday

    Time Temperature Precipitation Wind Pressure Humidity
    00:00 +13°C° 0.1 mm 2 mps 751 mmHg 82%
    01:00 +13°C° 0.1 mm 3 mps 751 mmHg 81%
    02:00 +13°C° 0.1 mm 4 mps 750 mmHg 81%
    03:00 +14°C° 0.6 mm 4 mps 749 mmHg 83%
    04:00 +15°C° 0.6 mm 5 mps 749 mmHg 86%
    05:00 +15°C° 0.6 mm 5 mps 748 mmHg 88%
    06:00 +16°C° 1.1 mm 5 mps 748 mmHg 87%
    07:00 +17°C° 1.1 mm 6 mps 748 mmHg 86%
    08:00 +17°C° 1.1 mm 6 mps 747 mmHg 85%
    09:00 +19°C° 0.4 mm 6 mps 747 mmHg 82%
    10:00 +19°C° 0.4 mm 5 mps 747 mmHg 78%
    11:00 +19°C° 0.4 mm 5 mps 747 mmHg 74%
    12:00 +19°C° 0.4 mm 5 mps 747 mmHg 78%
    13:00 +18°C° 0.4 mm 4 mps 747 mmHg 81%
    14:00 +18°C° 0.4 mm 3 mps 747 mmHg 84%
    15:00 +18°C° 0.1 mm 3 mps 747 mmHg 87%
    16:00 +17°C° 0.1 mm 2 mps 747 mmHg 89%
    17:00 +18°C° 0.1 mm 1 mps 747 mmHg 91%
    18:00 +18°C° 0 mm 1 mps 748 mmHg 93%
    19:00 +16°C° 0 mm 1 mps 748 mmHg 94%
    20:00 +15°C° 0 mm 0 mps 749 mmHg 96%
    21:00 +15°C° 0 mm 0 mps 749 mmHg 96%
    22:00 +15°C° 0 mm 0 mps 749 mmHg 96%
    23:00 +14°C° 0 mm 0 mps 750 mmHg 96%

    Tomorrow, 16 October, Tuesday

    Time Temperature Precipitation Wind Pressure Humidity
    00:00 +14°C° 0 mm 0 mps 750 mmHg 96%
    01:00 +14°C° 0 mm 0 mps 750 mmHg 96%
    02:00 +14°C° 0 mm 0 mps 750 mmHg 97%
    03:00 +15°C° 0 mm 1 mps 750 mmHg 96%
    04:00 +15°C° 0 mm 1 mps 750 mmHg 96%
    05:00 +15°C° 0 mm 1 mps 751 mmHg 96%
    06:00 +16°C° 0 mm 1 mps 751 mmHg 91%
    07:00 +18°C° 0 mm 1 mps 752 mmHg 85%
    08:00 +19°C° 0 mm 1 mps 752 mmHg 80%
    09:00 +21°C° 0 mm 1 mps 753 mmHg 72%
    10:00 +23°C° 0 mm 1 mps 753 mmHg 64%
    11:00 +24°C° 0 mm 1 mps 753 mmHg 56%
    12:00 +25°C° 0 mm 2 mps 753 mmHg 54%
    13:00 +25°C° 0 mm 2 mps 753 mmHg 52%
    14:00 +25°C° 0 mm 3 mps 753 mmHg 51%
    15:00 +24°C° 0 mm 2 mps 753 mmHg 58%
    16:00 +21°C° 0 mm 2 mps 753 mmHg 65%
    17:00 +20°C° 0 mm 2 mps 753 mmHg 72%
    18:00 +19°C° 0 mm 2 mps 754 mmHg 78%
    19:00 +18°C° 0 mm 2 mps 754 mmHg 85%
    20:00 +17°C° 0 mm 2 mps 755 mmHg 91%
    21:00 +16°C° 0 mm 2 mps 755 mmHg 92%
    22:00 +16°C° 0 mm 2 mps 755 mmHg 94%
    23:00 +15°C° 0 mm 2 mps 755 mmHg 95%

    Day after tomorrow, 17 October, Wednesday

    Time Temperature Precipitation Wind Pressure Humidity
    00:00 +15°C° 0 mm 2 mps 754 mmHg 95%
    01:00 +15°C° 0 mm 1 mps 754 mmHg 95%
    02:00 +15°C° 0 mm 1 mps 754 mmHg 95%
    03:00 +15°C° 0 mm 1 mps 754 mmHg 95%
    04:00 +14°C° 0 mm 2 mps 754 mmHg 95%
    05:00 +14°C° 0 mm 2 mps 754 mmHg 95%
    06:00 +16°C° 0 mm 2 mps 754 mmHg 88%
    07:00 +17°C° 0 mm 2 mps 754 mmHg 80%
    08:00 +18°C° 0 mm 2 mps 755 mmHg 73%
    09:00 +20°C° 0 mm 3 mps 755 mmHg 63%
    10:00 +22°C° 0 mm 3 mps 754 mmHg 54%
    11:00 +25°C° 0 mm 4 mps 754 mmHg 44%
    12:00 +23°C° 0.1 mm 5 mps 754 mmHg 50%
    13:00 +23°C° 0.1 mm 6 mps 753 mmHg 55%
    14:00 +22°C° 0.1 mm 6 mps 753 mmHg 60%
    15:00 +20°C° 0 mm 6 mps 753 mmHg 64%
    16:00 +17°C° 0 mm 6 mps 753 mmHg 68%
    17:00 +16°C° 0 mm 6 mps 753 mmHg 71%
    18:00 +15°C° 0 mm 5 mps 753 mmHg 73%
    19:00 +14°C° 0 mm 5 mps 753 mmHg 75%
    20:00 +14°C° 0 mm 5 mps 753 mmHg 76%
    21:00 +14°C° 0 mm 5 mps 753 mmHg 76%
    22:00 +14°C° 0 mm 5 mps 753 mmHg 76%
    23:00 +13°C° 0 mm 5 mps 753 mmHg 76%

    18 October, Thursday

    Time Temperature Precipitation Wind Pressure Humidity
    00:00 +13°C° 0 mm 5 mps 752 mmHg 77%
    01:00 +13°C° 0 mm 5 mps 752 mmHg 77%
    02:00 +13°C° 0 mm 5 mps 751 mmHg 78%
    03:00 +13°C° 0.1 mm 5 mps 751 mmHg 79%
    04:00 +13°C° 0.1 mm 5 mps 750 mmHg 79%
    05:00 +13°C° 0.1 mm 6 mps 750 mmHg 79%
    06:00 +13°C° 0 mm 6 mps 750 mmHg 75%
    07:00 +14°C° 0 mm 6 mps 750 mmHg 71%
    08:00 +15°C° 0 mm 7 mps 750 mmHg 67%
    09:00 +17°C° 0 mm 6 mps 750 mmHg 61%
    10:00 +19°C° 0 mm 6 mps 750 mmHg 55%
    11:00 +21°C° 0 mm 6 mps 750 mmHg 49%
    12:00 +22°C° 0 mm 6 mps 750 mmHg 47%
    13:00 +22°C° 0 mm 6 mps 749 mmHg 45%
    14:00 +23°C° 0 mm 6 mps 749 mmHg 44%
    15:00 +22°C° 0 mm 6 mps 749 mmHg 48%
    16:00 +21°C° 0 mm 6 mps 749 mmHg 52%
    17:00 +20°C° 0 mm 5 mps 749 mmHg 56%
    18:00 +19°C° 0 mm 5 mps 750 mmHg 59%
    19:00 +19°C° 0 mm 5 mps 750 mmHg 62%
    20:00 +18°C° 0 mm 4 mps 751 mmHg 65%
    21:00 +17°C° 0 mm 4 mps 751 mmHg 66%
    22:00 +17°C° 0 mm 4 mps 751 mmHg 68%
    23:00 +15°C° 0 mm 4 mps 751 mmHg 69%

    19 October, Friday

    Time Temperature Precipitation Wind Pressure Humidity
    00:00 +15°C° 0 mm 4 mps 751 mmHg 70%
    01:00 +15°C° 0 mm 4 mps 750 mmHg 70%
    02:00 +15°C° 0 mm 4 mps 750 mmHg 70%
    03:00 +14°C° 0 mm 4 mps 750 mmHg 71%
    04:00 +14°C° 0 mm 4 mps 750 mmHg 71%
    05:00 +14°C° 0 mm 4 mps 750 mmHg 71%
    06:00 +17°C° 0 mm 4 mps 750 mmHg 66%
    07:00 +17°C° 0 mm 5 mps 751 mmHg 60%
    08:00 +20°C° 0 mm 5 mps 751 mmHg 55%
    09:00 +22°C° 0 mm 5 mps 751 mmHg 50%
    10:00 +23°C° 0 mm 5 mps 751 mmHg 45%
    11:00 +26°C° 0 mm 5 mps 751 mmHg 41%
    12:00 +26°C° 0 mm 5 mps 750 mmHg 41%
    13:00 +26°C° 0 mm 5 mps 750 mmHg 42%
    14:00 +26°C° 0 mm 5 mps 749 mmHg 43%
    15:00 +25°C° 0 mm 4 mps 749 mmHg 47%
    16:00 +22°C° 0 mm 3 mps 749 mmHg 51%
    17:00 +21°C° 0 mm 3 mps 749 mmHg 56%
    18:00 +21°C° 0 mm 3 mps 750 mmHg 58%
    19:00 +20°C° 0 mm 3 mps 750 mmHg 60%
    20:00 +20°C° 0 mm 3 mps 750 mmHg 62%
    21:00 +19°C° 0 mm 3 mps 750 mmHg 64%
    22:00 +19°C° 0 mm 3 mps 750 mmHg 66%
    23:00 +18°C° 0 mm 3 mps 750 mmHg 69%

    20 October, Saturday

    Time Temperature Precipitation Wind Pressure Humidity
    00:00 +18°C° 0 mm 3 mps 750 mmHg 70%
    01:00 +18°C° 0 mm 3 mps 750 mmHg 71%
    02:00 +18°C° 0 mm 3 mps 750 mmHg 72%
    03:00 +17°C° 0 mm 3 mps 750 mmHg 74%
    04:00 +17°C° 0 mm 3 mps 751 mmHg 75%
    05:00 +17°C° 0 mm 3 mps 751 mmHg 76%
    06:00 +18°C° 0 mm 4 mps 751 mmHg 71%
    07:00 +19°C° 0 mm 5 mps 752 mmHg 66%
    08:00 +20°C° 0 mm 5 mps 752 mmHg 61%
    09:00 +21°C° 0 mm 5 mps 752 mmHg 54%
    10:00 +22°C° 0 mm 5 mps 752 mmHg 48%
    11:00 +25°C° 0 mm 5 mps 752 mmHg 41%
    12:00 +25°C° 0 mm 5 mps 752 mmHg 38%
    13:00 +26°C° 0 mm 4 mps 752 mmHg 35%
    14:00 +26°C° 0 mm 4 mps 751 mmHg 32%
    15:00 +25°C° 0 mm 3 mps 751 mmHg 39%
    16:00 +22°C° 0 mm 3 mps 752 mmHg 45%
    17:00 +20°C° 0 mm 2 mps 752 mmHg 52%
    18:00 +19°C° 0 mm 2 mps 752 mmHg 58%
    19:00 +19°C° 0 mm 2 mps 752 mmHg 64%
    20:00 +18°C° 0 mm 2 mps 752 mmHg 69%
    21:00 +18°C° 0 mm 2 mps 752 mmHg 71%
    22:00 +17°C° 0 mm 2 mps 752 mmHg 73%
    23:00 +17°C° 0 mm 2 mps 752 mmHg 74%
    Show more